Location: Caltech
(34.1382°N, 118.1253°W)
Time: 09:13:07
(UTC-07:00)

Meteor 2-4 Rocket - Visible Passes

Search period start: 01 August 2015 00:00
Search period end: 11 August 2015 00:00
Orbit: 799 x 909 km, 81.2° (Epoch: 01 August)

Date Brightness Start Highest point End Pass type
(mag) Time Alt. Az. Time Alt. Az. Time Alt. Az.
01 Aug 5.4 00:08:12 10° NNW 00:11:34 27° WNW 00:11:34 27° WNW visible
01 Aug 5.0 22:14:27 10° NNE 22:18:42 27° ENE 22:18:42 27° ENE visible
01 Aug 5.3 23:57:09 10° NNW 00:00:47 29° WNW 00:00:47 29° WNW visible
02 Aug 5.0 22:03:34 10° NNE 22:07:56 26° ENE 22:07:56 26° ENE visible
02 Aug 5.2 23:46:06 10° NNW 23:50:02 32° WNW 23:50:02 32° WNW visible
03 Aug 5.1 21:52:42 10° NNE 21:57:12 24° ENE 21:57:12 24° ENE visible
03 Aug 5.0 23:35:04 10° NNW 23:39:17 35° WNW 23:39:17 35° WNW visible
04 Aug 5.1 21:41:51 10° NNE 21:46:15 23° ENE 21:46:28 23° ENE visible
04 Aug 4.9 23:24:02 10° NNW 23:28:34 39° WNW 23:28:34 39° WNW visible
05 Aug 5.1 21:31:00 10° NNE 21:35:14 21° ENE 21:35:46 21° E visible
05 Aug 4.7 23:13:01 10° NNW 23:17:51 42° WNW 23:17:51 42° WNW visible
06 Aug 5.2 21:20:10 10° NNE 21:24:14 20° ENE 21:25:04 20° E visible
06 Aug 4.5 23:01:59 10° NNW 23:07:10 46° W 23:07:10 46° W visible
07 Aug 5.3 21:09:21 10° NNE 21:13:14 19° ENE 21:14:25 18° E visible
07 Aug 4.4 22:50:58 10° NNW 22:56:31 50° W 22:56:31 50° W visible
08 Aug 5.3 20:58:32 10° NNE 21:02:13 18° ENE 21:03:47 16° E visible
08 Aug 4.3 22:39:57 10° NNW 22:45:39 54° W 22:45:52 54° WSW visible
09 Aug 5.4 20:47:45 10° NNE 20:51:12 16° ENE 20:53:10 15° E visible
09 Aug 4.2 22:28:57 10° NNW 22:34:42 58° W 22:35:16 55° WSW visible
10 Aug 5.5 20:36:59 10° NE 20:40:11 15° ENE 20:42:36 13° E visible
10 Aug 4.1 22:17:57 10° NNW 22:23:45 62° W 22:24:42 54° SW visible
